Location: Unspecified
(50.7365°N, 0.0000°E)
Time: 01:08:09
(UTC+00:00)

YOUTHSAT - Visible Passes

Search period start: 04 April 2026 00:00
Search period end: 14 April 2026 00:00
Orbit: 797 x 816 km, 98.4° (Epoch: 29 March)

Date Brightness Start Highest point End Pass type
(mag) Time Alt. Az. Time Alt. Az. Time Alt. Az.
4 Apr ? 02:55:49 10° NE 02:58:59 16° E 03:02:09 10° SE visible
4 Apr ? 04:34:15 10° NNE 04:39:34 87° WNW 04:44:50 10° SSW visible
5 Apr ? 04:09:31 10° NNE 04:14:47 61° E 04:19:59 10° S visible
6 Apr ? 03:44:57 10° NNE 03:49:54 39° E 03:54:48 10° SSE visible
7 Apr ? 03:20:35 10° NE 03:24:57 25° E 03:29:14 10° SSE visible
8 Apr ? 02:56:37 10° NE 02:59:52 16° E 03:03:05 10° SE visible
8 Apr ? 04:35:07 10° NNE 04:40:26 85° WNW 04:45:41 10° SSW visible
9 Apr ? 04:10:23 10° NNE 04:15:38 62° E 04:20:50 10° S visible
10 Apr ? 03:45:48 10° NNE 03:50:46 40° E 03:55:40 10° SSE visible
11 Apr ? 03:21:25 10° NE 03:25:48 26° E 03:30:07 10° SSE visible
12 Apr ? 02:57:25 10° NE 03:00:44 17° E 03:04:01 10° SE visible
12 Apr ? 04:35:58 10° NNE 04:41:16 84° WNW 04:46:31 10° SSW visible
13 Apr ? 02:35:18 10° E 02:35:34 10° E 02:35:50 10° E visible
13 Apr ? 04:11:14 10° NNE 04:16:29 64° ESE 04:21:41 10° S visible
